カタログに戻る

PEGASUS DEB

運用中PO
NORAD 24378·DEBRIS·🇺🇸 United States

打ち上げ May 19, 1994 から Vandenberg Space Force Base

Loading…

次のパス (今後24時間)

TLE

最新Source: Space-Track

元期: Sep 13, 2026, 19:06 UTC

1 24378U 94029QF  26256.79613734  .00000574  00000-0  98640-4 0  9996
2 24378  82.0322 164.5546 0158171 283.6525  74.7105 14.59280113711588

AllMySatでPEGASUS DEBをリアルタイム追跡

Download on the App Store